KF0TNT Weather Reports


time (UTC)temp
C
wind
direction
speed
KPH
gust
KPH
rain 1hr
cm
rain 24hr
cm
rain mn
cm
humidity
%
barometer
mb
20260906215350 28 120 6.4 6.4 0.00 0.00 0.00 34 1022.2
20260906214848 28 56 6.4 11.3 0.00 0.00 0.00 33 1022.5
20260906214347 28 270 8.0 8.0 0.00 0.00 0.00 35 1022.6
20260906213846 28 78 0.0 9.7 0.00 0.00 0.00 35 1022.7
20260906213341 28 19 3.2 12.9 0.00 0.00 0.00 34 1022.6
20260906212839 29 139 4.8 12.9 0.00 0.00 0.00 34 1022.7
20260906212334 28 160 4.8 16.1 0.00 0.00 0.00 35 1022.8
20260906211834 28 268 3.2 16.1 0.00 0.00 0.00 34 1023.0
20260906211329 28 72 4.8 8.0 0.00 0.00 0.00 34 1022.5
20260906210824 28 349 4.8 14.5 0.00 0.00 0.00 35 1022.8
20260906210324 29 307 8.0 9.7 0.00 0.00 0.00 34 1022.8
20260906205820 29 186 9.7 9.7 0.00 0.00 0.00 34 1023.0
20260906205316 28 10 3.2 11.3 0.00 0.00 0.00 35 1023.0
20260906204812 28 151 12.9 16.1 0.00 0.00 0.00 35 1023.0
20260906204311 28 136 4.8 12.9 0.00 0.00 0.00 35 1023.1
20260906203810 28 18 8.0 9.7 0.00 0.00 0.00 36 1023.2
20260906203306 28 18 6.4 17.7 0.00 0.00 0.00 35 1023.2
20260906202803 29 170 3.2 14.5 0.00 0.00 0.00 33 1023.0
20260906202306 29 57 3.2 11.3 0.00 0.00 0.00 34 1023.1
20260906201756 29 171 4.8 9.7 0.00 0.00 0.00 33 1023.3
20260906201256 28 179 3.2 12.9 0.00 0.00 0.00 34 1023.3
20260906200752 28 149 9.7 14.5 0.00 0.00 0.00 34 1023.5
20260906200248 28 326 3.2 6.4 0.00 0.00 0.00 34 1023.5
20260906195743 28 343 4.8 6.4 0.00 0.00 0.00 33 1023.5
20260906195239 28 311 3.2 8.0 0.00 0.00 0.00 34 1023.6
20260906194735 28 354 6.4 8.0 0.00 0.00 0.00 33 1023.8
20260906194231 28 173 8.0 11.3 0.00 0.00 0.00 34 1023.6
20260906193725 28 169 12.9 16.1 0.00 0.00 0.00 33 1024.1
20260906193220 28 175 4.8 8.0 0.00 0.00 0.00 33 1023.8
20260906192716 29 345 1.6 12.9 0.00 0.00 0.00 33 1024.0
20260906192216 28 60 1.6 8.0 0.00 0.00 0.00 33 1023.8
20260906191710 28 192 3.2 9.7 0.00 0.00 0.00 34 1023.8
20260906191209 28 186 6.4 14.5 0.00 0.00 0.00 34 1024.0
20260906190704 28 152 6.4 9.7 0.00 0.00 0.00 35 1024.0
20260906190159 28 348 6.4 9.7 0.00 0.00 0.00 34 1024.1
20260906185658 28 9 4.8 11.3 0.00 0.00 0.00 34 1024.3
20260906185157 27 17 12.9 17.7 0.00 0.00 0.00 33 1024.5
20260906184651 27 186 4.8 16.1 0.00 0.00 0.00 35 1024.5
20260906184147 27 68 3.2 19.3 0.00 0.00 0.00 35 1024.5
20260906183642 28 144 8.0 12.9 0.00 0.00 0.00 34 1024.5
20260906183139 28 358 4.8 6.4 0.00 0.00 0.00 33 1024.7
20260906182639 28 9 6.4 9.7 0.00 0.00 0.00 35 1024.6
20260906182135 27 13 11.3 11.3 0.00 0.00 0.00 36 1024.9
20260906181630 27 124 6.4 8.0 0.00 0.00 0.00 35 1024.8
20260906181126 27 152 4.8 8.0 0.00 0.00 0.00 36 1025.2
20260906180621 27 180 4.8 8.0 0.00 0.00 0.00 35 1025.2
20260906180120 27 180 1.6 12.9 0.00 0.00 0.00 36 1025.3
20260906175619 27 165 6.4 8.0 0.00 0.00 0.00 34 1025.6
20260906175114 27 18 4.8 9.7 0.00 0.00 0.00 35 1025.3
20260906174612 27 141 9.7 9.7 0.00 0.00 0.00 35 1025.6
20260906174107 27 235 4.8 9.7 0.00 0.00 0.00 35 1025.4
20260906173602 26 149 4.8 16.1 0.00 0.00 0.00 35 1025.6
20260906173058 26 198 6.4 12.9 0.00 0.00 0.00 35 1025.8
20260906172557 26 217 4.8 14.5 0.00 0.00 0.00 35 1025.7
20260906172053 26 200 4.8 9.7 0.00 0.00 0.00 35 1025.8
20260906171553 26 321 9.7 9.7 0.00 0.00 0.00 34 1025.8
20260906171048 26 42 3.2 9.7 0.00 0.00 0.00 34 1025.7
20260906170544 26 27 0.0 6.4 0.00 0.00 0.00 35 1025.8
20260906170043 26 358 3.2 4.8 0.00 0.00 0.00 34 1025.8
20260906165540 26 10 3.2 3.2 0.00 0.00 0.00 35 1025.8
20260906165035 26 178 3.2 8.0 0.00 0.00 0.00 35 1025.8
20260906164534 26 324 3.2 4.8 0.00 0.00 0.00 34 1025.8
20260906164030 26 150 4.8 9.7 0.00 0.00 0.00 34 1025.8
20260906163526 26 347 3.2 6.4 0.00 0.00 0.00 35 1026.1
20260906163021 25 169 4.8 4.8 0.00 0.00 0.00 36 1026.1
20260906162518 26 254 6.4 9.7 0.00 0.00 0.00 36 1026.3
20260906162013 25 244 0.0 3.2 0.00 0.00 0.00 34 1026.2
20260906161508 25 177 0.0 6.4 0.00 0.00 0.00 36 1026.1
20260906161007 25 87 1.6 9.7 0.00 0.00 0.00 36 1025.9
20260906160500 25 31 4.8 9.7 0.00 0.00 0.00 36 1026.1
20260906155958 24 175 3.2 4.8 0.00 0.00 0.00 37 1025.8
20260906155457 24 354 3.2 4.8 0.00 0.00 0.00 39 1026.1
20260906154953 23 3 4.8 8.0 0.00 0.00 0.00 40 1025.7
20260906154449 23 5 11.3 11.3 0.00 0.00 0.00 39 1025.8
20260906153946 23 24 9.7 11.3 0.00 0.00 0.00 39 1025.9
20260906153446 23 6 8.0 14.5 0.00 0.00 0.00 39 1025.8
20260906152941 22 1 6.4 9.7 0.00 0.00 0.00 40 1025.7
20260906152441 22 323 6.4 9.7 0.00 0.00 0.00 43 1025.8
20260906151940 21 0 0.0 6.4 0.00 0.00 0.00 44 1025.6
20260906151436 21 295 3.2 8.0 0.00 0.00 0.00 45 1025.8
20260906150932 21 43 4.8 9.7 0.00 0.00 0.00 46 1025.8
20260906150427 20 18 4.8 8.0 0.00 0.00 0.00 47 1025.9
20260906145926 20 357 4.8 4.8 0.00 0.00 0.00 48 1025.7
20260906145425 20 25 6.4 6.4 0.00 0.00 0.00 49 1025.8
20260906144920 20 353 6.4 8.0 0.00 0.00 0.00 48 1025.4
20260906144415 19 15 6.4 14.5 0.00 0.00 0.00 50 1025.7
20260906143910 19 21 9.7 14.5 0.00 0.00 0.00 51 1025.7
20260906143406 18 9 6.4 12.9 0.00 0.00 0.00 52 1026.1
20260906142902 18 19 8.0 9.7 0.00 0.00 0.00 53 1025.8
20260906142401 18 12 8.0 11.3 0.00 0.00 0.00 53 1025.8
20260906141856 18 10 9.7 12.9 0.00 0.00 0.00 53 1025.6
20260906141356 17 12 9.7 14.5 0.00 0.00 0.00 54 1025.7
20260906140856 17 6 9.7 17.7 0.00 0.00 0.00 55 1025.4
20260906140351 17 12 8.0 16.1 0.00 0.00 0.00 56 1025.7
20260906135849 17 5 9.7 11.3 0.00 0.00 0.00 57 1025.7
20260906135348 17 20 9.7 11.3 0.00 0.00 0.00 57 1025.6
20260906134844 16 9 6.4 11.3 0.00 0.00 0.00 57 1025.4
20260906134339 16 17 9.7 11.3 0.00 0.00 0.00 57 1025.3
20260906133834 16 14 6.4 11.3 0.00 0.00 0.00 58 1025.6
20260906133330 16 20 6.4 9.7 0.00 0.00 0.00 58 1025.4
20260906132825 16 22 4.8 6.4 0.00 0.00 0.00 58 1025.3
20260906132321 16 22 6.4 11.3 0.00 0.00 0.00 59 1025.2
20260906131816 15 339 4.8 8.0 0.00 0.00 0.00 59 1025.3
20260906131311 15 12 6.4 9.7 0.00 0.00 0.00 59 1025.2
20260906130306 15 9 4.8 8.0 0.00 0.00 0.00 58 1024.9
20260906125805 16 23 6.4 8.0 0.00 0.00 0.00 58 1025.3
20260906125306 16 4 6.4 8.0 0.00 0.00 0.00 57 1025.4
20260906124758 16 4 6.4 9.7 0.00 0.00 0.00 56 1025.3
20260906124254 16 11 6.4 8.0 0.00 0.00 0.00 56 1025.2
20260906123753 16 5 6.4 8.0 0.00 0.00 0.00 55 1025.2
20260906123248 16 2 6.4 9.7 0.00 0.00 0.00 54 1024.9
20260906122747 17 6 6.4 9.7 0.00 0.00 0.00 54 1025.1
20260906122243 17 9 6.4 9.7 0.00 0.00 0.00 53 1024.9
20260906121739 17 14 8.0 11.3 0.00 0.00 0.00 52 1025.1
20260906121235 17 15 8.0 11.3 0.00 0.00 0.00 52 1024.8
20260906120731 17 9 9.7 11.3 0.00 0.00 0.00 52 1024.9
20260906120228 17 1 9.7 12.9 0.00 0.00 0.00 52 1024.9
20260906115723 17 11 6.4 14.5 0.00 0.00 0.00 52 1024.9
20260906115218 17 21 8.0 11.3 0.00 0.00 0.00 52 1024.9
20260906114717 17 13 8.0 12.9 0.00 0.00 0.00 53 1024.9
20260906114212 17 16 8.0 12.9 0.00 0.00 0.00 53 1024.9
20260906113708 17 16 9.7 12.9 0.00 0.00 0.00 52 1024.9
20260906113207 17 17 8.0 16.1 0.00 0.00 0.00 52 1024.8
20260906112706 16 26 8.0 14.5 0.00 0.00 0.00 53 1024.7
20260906112204 17 11 8.0 9.7 0.00 0.00 0.00 53 1024.7
20260906111703 17 11 6.4 12.9 0.00 0.00 0.00 53 1024.8
20260906111157 17 22 9.7 9.7 0.00 0.00 0.00 54 1024.5
20260906110653 16 20 11.3 11.3 0.00 0.00 0.00 55 1024.6
20260906110148 16 12 6.4 11.3 0.00 0.00 0.00 54 1024.6
20260906105648 17 10 8.0 11.3 0.00 0.00 0.00 54 1024.5
20260906105144 17 12 6.4 11.3 0.00 0.00 0.00 53 1024.6
20260906104643 17 9 4.8 8.0 0.00 0.00 0.00 53 1024.5
20260906104143 17 11 6.4 9.7 0.00 0.00 0.00 52 1024.6
20260906103641 17 22 11.3 14.5 0.00 0.00 0.00 52 1024.8
20260906103136 17 4 9.7 12.9 0.00 0.00 0.00 53 1024.6
20260906102631 17 10 8.0 11.3 0.00 0.00 0.00 54 1024.8
20260906102126 17 7 8.0 12.9 0.00 0.00 0.00 54 1024.7
20260906101625 17 7 11.3 12.9 0.00 0.00 0.00 55 1024.5
20260906101125 17 19 9.7 11.3 0.00 0.00 0.00 55 1024.9
20260906100621 17 7 6.4 9.7 0.00 0.00 0.00 54 1024.8
20260906100116 17 15 8.0 11.3 0.00 0.00 0.00 53 1024.9
20260906095616 17 357 6.4 9.7 0.00 0.00 0.00 52 1025.1
20260906095111 17 10 8.0 11.3 0.00 0.00 0.00 53 1025.2
20260906094610 17 0 6.4 8.0 0.00 0.00 0.00 53 1024.9
20260906094106 17 17 8.0 11.3 0.00 0.00 0.00 53 1025.1
20260906093602 17 23 11.3 14.5 0.00 0.00 0.00 54 1025.2
20260906093057 17 17 9.7 14.5 0.00 0.00 0.00 56 1025.1
20260906092552 17 9 9.7 11.3 0.00 0.00 0.00 57 1025.1
20260906092047 17 9 9.7 11.3 0.00 0.00 0.00 56 1025.1
20260906091543 17 14 8.0 9.7 0.00 0.00 0.00 57 1024.8
20260906091039 17 9 4.8 11.3 0.00 0.00 0.00 58 1024.7
20260906090539 17 9 8.0 11.3 0.00 0.00 0.00 59 1024.7
20260906090040 17 7 8.0 9.7 0.00 0.00 0.00 63 1024.7
20260906085538 17 15 8.0 11.3 0.00 0.00 0.00 62 1024.8
20260906085038 17 14 8.0 11.3 0.00 0.00 0.00 61 1024.7
20260906084533 17 12 8.0 9.7 0.00 0.00 0.00 61 1024.9
20260906084031 17 19 9.7 12.9 0.00 0.00 0.00 62 1024.8
20260906083527 17 12 8.0 11.3 0.00 0.00 0.00 63 1025.1
20260906083027 17 10 9.7 11.3 0.00 0.00 0.00 64 1025.1
20260906082522 17 11 9.7 11.3 0.00 0.00 0.00 64 1024.9
20260906082018 17 15 9.7 11.3 0.00 0.00 0.00 64 1024.9
20260906081514 17 25 9.7 11.3 0.00 0.00 0.00 64 1024.9
20260906081009 17 14 9.7 9.7 0.00 0.00 0.00 64 1025.1
20260906080506 17 10 9.7 11.3 0.00 0.00 0.00 64 1024.9
20260906080001 17 10 8.0 11.3 0.00 0.00 0.00 63 1024.8
20260906075455 18 11 8.0 9.7 0.00 0.00 0.00 62 1025.1
20260906074951 18 16 8.0 12.9 0.00 0.00 0.00 61 1025.1
20260906074451 18 8 8.0 9.7 0.00 0.00 0.00 62 1025.1
20260906073949 18 18 9.7 9.7 0.00 0.00 0.00 63 1025.2
20260906073444 17 6 8.0 9.7 0.00 0.00 0.00 66 1025.1
20260906072940 17 5 8.0 9.7 0.00 0.00 0.00 68 1025.4
20260906072435 17 6 6.4 9.7 0.00 0.00 0.00 69 1025.2
20260906071931 17 12 8.0 8.0 0.00 0.00 0.00 70 1025.1
20260906071427 17 5 6.4 6.4 0.00 0.00 0.00 69 1025.4
20260906070923 17 17 6.4 8.0 0.00 0.00 0.00 69 1025.3
20260906070419 18 8 6.4 8.0 0.00 0.00 0.00 68 1025.3
20260906065915 18 5 6.4 8.0 0.00 0.00 0.00 67 1025.6
20260906065408 18 16 8.0 9.7 0.00 0.00 0.00 66 1025.3
20260906064904 18 359 6.4 11.3 0.00 0.00 0.00 67 1025.3
20260906064401 17 8 8.0 9.7 0.00 0.00 0.00 71 1025.4
20260906063900 17 3 8.0 8.0 0.00 0.00 0.00 72 1025.2
20260906063355 17 23 6.4 6.4 0.00 0.00 0.00 72 1025.7
20260906062850 17 10 6.4 8.0 0.00 0.00 0.00 72 1025.4
20260906062350 17 11 6.4 6.4 0.00 0.00 0.00 71 1025.4
20260906061845 17 9 8.0 8.0 0.00 0.00 0.00 70 1025.3
20260906061342 17 24 4.8 6.4 0.00 0.00 0.00 69 1025.4
20260906060836 17 12 8.0 9.7 0.00 0.00 0.00 69 1025.1
20260906060334 17 17 8.0 9.7 0.00 0.00 0.00 70 1025.3
20260906055829 17 9 9.7 14.5 0.00 0.00 0.00 71 1025.1
20260906055325 17 7 8.0 9.7 0.00 0.00 0.00 72 1025.1
20260906054820 17 358 8.0 9.7 0.00 0.00 0.00 72 1024.7
20260906054315 17 4 6.4 8.0 0.00 0.00 0.00 72 1024.9
20260906053812 17 18 6.4 8.0 0.00 0.00 0.00 72 1024.9
20260906053307 17 14 6.4 6.4 0.00 0.00 0.00 72 1024.8
20260906052802 17 13 6.4 8.0 0.00 0.00 0.00 71 1024.9
20260906052258 17 9 6.4 8.0 0.00 0.00 0.00 71 1025.1
20260906051755 17 9 8.0 8.0 0.00 0.00 0.00 71 1024.8
20260906051254 17 14 6.4 8.0 0.00 0.00 0.00 70 1024.8
20260906050750 17 13 8.0 8.0 0.00 0.00 0.00 70 1025.1
20260906050245 18 2 4.8 6.4 0.00 0.00 0.00 69 1024.9
20260906045744 18 9 4.8 6.4 0.00 0.00 0.00 69 1025.1
20260906045239 18 16 6.4 8.0 0.00 0.00 0.00 69 1025.3
20260906044734 18 1 4.8 6.4 0.00 0.00 0.00 69 1025.2
20260906044229 18 9 4.8 6.4 0.00 0.00 0.00 69 1025.1
20260906043726 18 12 6.4 8.0 0.00 0.00 0.00 68 1025.2
20260906043221 18 14 4.8 6.4 0.00 0.00 0.00 68 1025.3
20260906042721 18 15 4.8 6.4 0.00 0.00 0.00 68 1025.2
20260906042220 18 15 4.8 4.8 0.00 0.00 0.00 68 1025.2
20260906041715 18 0 4.8 4.8 0.00 0.00 0.00 68 1025.3
20260906041211 18 8 4.8 4.8 0.00 0.00 0.00 67 1025.1
20260906040706 18 19 4.8 6.4 0.00 0.00 0.00 67 1025.2
20260906040201 18 5 3.2 6.4 0.00 0.00 0.00 67 1025.4
20260906035657 19 14 4.8 4.8 0.00 0.00 0.00 66 1025.3
20260906035153 19 30 3.2 4.8 0.00 0.00 0.00 65 1025.2
20260906034653 19 54 3.2 3.2 0.00 0.00 0.00 65 1025.3
20260906034148 19 22 3.2 3.2 0.00 0.00 0.00 64 1025.3
20260906033643 20 46 3.2 3.2 0.00 0.00 0.00 62 1025.6
20260906033137 20 162 0.0 1.6 0.00 0.00 0.00 60 1025.4
20260906032634 20 59 0.0 1.6 0.00 0.00 0.00 62 1025.6
20260906032134 20 55 0.0 1.6 0.00 0.00 0.00 62 1025.6
20260906031629 20 167 0.0 3.2 0.00 0.00 0.00 61 1025.4
20260906031125 21 126 0.0 4.8 0.00 0.00 0.00 61 1025.4
20260906030624 21 196 3.2 3.2 0.00 0.00 0.00 60 1025.3
20260906030119 21 148 3.2 6.4 0.00 0.00 0.00 60 1024.9
20260906025619 21 241 3.2 3.2 0.00 0.00 0.00 59 1024.9
20260906025118 21 186 4.8 8.0 0.00 0.00 0.00 59 1025.1
20260906024612 21 137 3.2 8.0 0.00 0.00 0.00 56 1024.8
20260906024107 21 174 0.0 6.4 0.00 0.00 0.00 53 1024.7
20260906023603 21 211 3.2 6.4 0.00 0.00 0.00 48 1024.7
20260906023057 21 186 6.4 16.1 0.00 0.00 0.00 47 1024.6
20260906022553 20 172 3.2 4.8 0.00 0.00 0.00 41 1024.6
20260906022048 20 137 0.0 1.6 0.00 0.00 0.00 41 1024.3
20260906021544 21 130 1.6 1.6 0.00 0.00 0.00 41 1024.2
20260906021043 21 70 1.6 6.4 0.00 0.00 0.00 40 1023.8
20260906020542 21 62 0.0 3.2 0.00 0.00 0.00 40 1024.0
20260906020042 21 202 0.0 1.6 0.00 0.00 0.00 39 1023.8
20260906015541 21 70 3.2 3.2 0.00 0.00 0.00 39 1023.8
20260906015041 21 58 1.6 4.8 0.00 0.00 0.00 39 1023.8
20260906014536 22 26 3.2 4.8 0.00 0.00 0.00 38 1023.7
20260906014032 22 23 3.2 6.4 0.00 0.00 0.00 37 1023.7
20260906013527 22 9 6.4 6.4 0.00 0.00 0.00 37 1023.5
20260906013023 23 7 6.4 8.0 0.00 0.00 0.00 37 1023.6
20260906012518 23 8 8.0 9.7 0.00 0.00 0.00 37 1023.3
20260906012017 24 9 6.4 9.7 0.00 0.00 0.00 36 1023.6
20260906011514 25 16 4.8 6.4 0.00 0.00 0.00 35 1023.6
20260906011013 25 12 3.2 4.8 0.00 0.00 0.00 33 1023.6
20260906010509 26 13 3.2 4.8 0.00 0.00 0.00 32 1023.8
20260906010005 26 352 0.0 1.6 0.00 0.00 0.00 30 1024.0
20260906005504 26 43 3.2 3.2 0.00 0.00 0.00 31 1023.8
20260906005003 26 50 0.0 1.6 0.00 0.00 0.00 30 1024.0
20260906004503 26 67 1.6 4.8 0.00 0.00 0.00 31 1024.1
20260906003958 26 4 3.2 4.8 0.00 0.00 0.00 31 1024.2
20260906003453 26 2 3.2 9.7 0.00 0.00 0.00 32 1024.3
20260906002948 25 28 4.8 9.7 0.00 0.00 0.00 32 1024.2
20260906002448 25 356 4.8 9.7 0.00 0.00 0.00 32 1024.1
20260906001943 25 12 9.7 11.3 0.00 0.00 0.00 33 1024.1
20260906001440 25 315 11.3 12.9 0.00 0.00 0.00 33 1024.3
20260906000934 25 0 8.0 8.0 0.00 0.00 0.00 34 1024.2
20260906000430 25 6 3.2 6.4 0.00 0.00 0.00 34 1024.3
20260905235924 25 357 1.6 6.4 0.00 0.00 0.00 34 1024.1
20260905235424 26 289 0.0 3.2 0.00 0.00 0.00 33 1024.0
20260905234919 26 327 1.6 3.2 0.00 0.00 0.00 33 1024.1
20260905234415 26 290 6.4 6.4 0.00 0.00 0.00 32 1023.8
20260905233915 26 316 0.0 4.8 0.00 0.00 0.00 31 1024.0
20260905233410 25 285 3.2 4.8 0.00 0.00 0.00 32 1023.8
20260905232909 25 323 1.6 4.8 0.00 0.00 0.00 32 1024.1
20260905232405 25 290 1.6 4.8 0.00 0.00 0.00 33 1024.0
20260905231901 26 288 3.2 6.4 0.00 0.00 0.00 32 1024.1
20260905231356 27 301 4.8 6.4 0.00 0.00 0.00 30 1023.8
20260905230853 26 174 1.6 3.2 0.00 0.00 0.00 30 1023.7
20260905230350 26 21 0.0 0.0 0.00 0.00 0.00 30 1023.7
20260905225849 26 7 1.6 3.2 0.00 0.00 0.00 31 1023.8
20260905225344 26 318 1.6 4.8 0.00 0.00 0.00 30 1023.7
20260905224839 26 42 3.2 6.4 0.00 0.00 0.00 31 1023.7
20260905224335 26 15 3.2 6.4 0.00 0.00 0.00 31 1023.7
20260905223830 26 337 4.8 6.4 0.00 0.00 0.00 32 1024.1
20260905223328 25 329 4.8 8.0 0.00 0.00 0.00 32 1024.1
20260905222822 25 2 4.8 8.0 0.00 0.00 0.00 33 1024.1
20260905222321 25 2 9.7 9.7 0.05 0.00 0.00 35 1024.2
20260905221817 25 9 4.8 4.8 0.05 0.00 0.00 35 1024.2
20260905221314 25 35 0.0 3.2 0.00 0.00 0.00 33 1024.5
20260905220809 25 307 3.2 6.4 0.00 0.00 0.00 31 1024.5
20260905220306 25 124 6.4 6.4 0.00 0.00 0.00 32 1024.5
20260905215804 25 186 3.2 6.4 0.00 0.00 0.00 33 1024.3